Regional Weather Roundup
Issued by NWS

Home | Current Version | Previous Version | Graphics & Text | Print | Product List | Glossary Off
Versions: 1 2 3 4 5 6 7 8 9 10 11 12 13 14 15 16 17 18 19 20 21 22 23 24 25 26 27 28 29 30 31 32 33 34 35 36 37 38 39 40 41 42 43 44 45 46 47 48 49 50

000
ASUS43 KMPX 272301
RWRMN
WEATHER ROUNDUP FOR MINNESOTA
NATIONAL WEATHER SERVICE TWIN CITIES/CHANHASSEN MN
600 PM CDT TUE SEP 27 2016


NOTE: "FAIR" INDICATES FEW OR NO CLOUDS BELOW 12,000 FEET WITH NO
SIGNIFICANT WEATHER AND/OR OBSTRUCTIONS TO VISIBILITY. N/A MEANS
CURRENT SKY AND/OR WEATHER CONDITIONS ARE NOT AVAILABLE.

MNZ060>063-068>070-280000-
   Twin Cities Metro

CITY           SKY/WX    TMP DP  RH WIND       PRES   REMARKS
TWIN CITIES    LGT RAIN  51  46  83 N10       29.84R
ST PAUL        LGT RAIN  51  47  86 N10       29.84R
CRYSTAL        LGT RAIN  51  45  79 NW8       29.83R
BLAINE         LGT RAIN  52  48  87 NW12      29.83R
LAKEVILLE      CLOUDY    54  45  71 N14G21    29.82R
EDEN PRAIRIE   LGT RAIN  53  46  77 N14G23    29.82R
LAKEVILLE      CLOUDY    54  45  71 N14G21    29.82R
SOUTH ST PAUL  LGT RAIN  51  46  83 N7        29.83R
LAKE ELMO      LGT RAIN  50  46  87 NW9G16    29.83R
$$
MNZ001>005-007-008-013>017-022>024-027-028-280000-
   Northwest Minnesota

CITY           SKY/WX    TMP DP  RH WIND       PRES   REMARKS
BEMIDJI        CLOUDY    46  44  91 N8        29.89R
HALLOCK        CLOUDY    55  46  71 N9        29.93R
ROSEAU         CLOUDY    52  43  71 N6        29.92R
WARROAD        CLOUDY    52  43  71 N7        29.93R
THIEF RVR FALL   N/A     51  44  77 N14       29.93R
CROOKSTON      CLOUDY    54  45  71 N12       29.93R
FOSSTON        CLOUDY    48  43  81 N14       29.92R
DETROIT LAKES  CLOUDY    52  43  71 N14G21    29.90S
MOORHEAD       SUNNY     57  43  58 N16G23    29.91R
PARK RAPIDS    CLOUDY    50  44  80 N14       29.88R
MAHNOMEN       CLOUDY    50  43  76 N13       29.90R
$$
MNZ006-009>011-018-025>026-280000-
   North Central Minnesota

CITY           SKY/WX    TMP DP  RH WIND       PRES   REMARKS
BAUDETTE       CLOUDY    51  44  77 N10       29.89R
FLAG ISLAND    MOCLDY    52  43  71 N17       29.91R
INTL FALLS     CLOUDY    51  44  77 N13       29.85R
WASKISH        RAIN      48  46  93 N7G16     29.89R
BIG FORK       CLOUDY    48  45  87 N6        29.85R
GRAND RAPIDS   CLOUDY    48  44  86 N14       29.85R
ORR            CLOUDY    48  43  81 CALM      29.80R
COOK           CLOUDY    48  45  87 N5        29.82R
WALKER         CLOUDY    46  43  90 NW9       29.87R
$$
MNZ012-019>021-037-280000-
   Northeast Minnesota

CITY           SKY/WX    TMP DP  RH WIND       PRES   REMARKS
DULUTH         CLOUDY    48  45  89 NW14G23   29.76R
ELY            CLOUDY    48  45  87 NW6       29.79R
HIBBING        CLOUDY    47  44  90 N13       29.81R
EVELETH        CLOUDY    50  44  81 N6        29.81R
DULUTH HARBOR  CLOUDY    52  46  82 NW7       29.78R
TWO HARBORS    MOCLDY    54  46  76 N8        29.73R
SILVER BAY     CLOUDY    52  46  82 N6        29.72R
GRAND MARAIS     N/A     55  48  77 VRB5G21   29.68R
G MARAIS ARPRT CLOUDY    46  43  87 NW7       29.72R
$$
MNZ029>031-032-039>041-046>048-054>057-064-280000-
   West Central Minnesota

CITY           SKY/WX    TMP DP  RH WIND       PRES   REMARKS
FERGUS FALLS   CLOUDY    57  43  58 N17       29.90R
MORRIS         CLOUDY    63  37  39 N16       29.85R
ALEXANDRIA     CLOUDY    55  44  66 N10       29.88R
ELBOW LAKE     FAIR      58  40  52 N13G21    29.86S
WADENA         CLOUDY    48  43  81 NW8       29.88R
GLENWOOD       CLOUDY    55  45  67 N12       29.86R
BENSON         CLOUDY    61  36  39 NE13      29.85R
ORTONVILLE     SUNNY     66  28  24 NW16      29.85S
MADISON        SUNNY     70  28  21 N17G23    29.85R
WILLMAR        FAIR      61  39  44 NW13G21   29.84S
$$
MNZ033>034-036-042>043-049>051-058-059-280000-
   Central Minnesota

CITY           SKY/WX    TMP DP  RH WIND       PRES   REMARKS
ST CLOUD       CLOUDY    49  47  93 NW13      29.85R
SAUK CENTRE    CLOUDY    53  42  67 N14       29.87R
PAYNESVILLE    CLOUDY    56  42  60 N9G18     29.85R
AITKIN         CLOUDY    50  45  81 NW6       29.83R
PINE RIVER     CLOUDY    48  45  87 N12       29.90R
BRAINERD       LGT RAIN  48  46  93 N12       29.86R
STAPLES        CLOUDY    46  45  93 NW10      29.87R
LONG PRAIRIE   DRIZZLE   46  45  93 NW9       29.88R
LITTLE FALLS   CLOUDY    46  45  93 NW8       29.86R
LITCHFIELD     CLOUDY    57  45  62 N10G20    29.84R
BUFFALO        LGT RAIN  52  44  74 NW12      29.85R
MAPLE LAKE     DRIZZLE   52  47  83 N12       29.86R
HUTCHINSON     CLOUDY    59  40  49 N13G20    29.83R
$$
MNZ037-044-045-052-053-280000-
   East Central Minnesota

CITY           SKY/WX    TMP DP  RH WIND       PRES   REMARKS
PRINCETON      DRIZZLE   52  48  87 NW8       29.84R
MORA           DRIZZLE   48  45  87 N5        29.84R
CAMBRIDGE      LGT RAIN  52  45  76 NW8       29.81R
MOOSE LAKE     CLOUDY    46  43  87 NW8       29.79S
HINCKLEY       DRIZZLE   46  46 100 N9        29.81S
CLOQUET        CLOUDY    46  45  93 NW10G18   29.78S
MCGREGOR       CLOUDY    46  45  93 NW9       29.83R
$$
MNZ071>073-080-081-089-090-097-098-280000-
   Southwest Minnesota

CITY           SKY/WX    TMP DP  RH WIND       PRES   REMARKS
MONTEVIDEO     CLOUDY    68  30  24 N16       29.85R
GRANITE FALLS  CLOUDY    69  32  25 NW16G24   29.84F
CANBY          SUNNY     67  29  24 NW12G24   29.86S
MARSHALL       MOSUNNY   69  28  21 N16G23    29.84R
REDWOOD FALLS  CLOUDY    64  32  30 NW10      29.82S
OLIVIA         CLOUDY    61  36  39 N12       29.83R
PIPESTONE      SUNNY     70  32  24 NW12G22   29.86F
WINDOM         MOSUNNY   66  27  22 NW10      29.84R
WORTHINGTON    SUNNY     68  40  35 NW14      29.85S
JACKSON        MOSUNNY   68  23  18 NW9       29.84R
TRACY          MOSUNNY   70  33  25 NW14G20   29.84S
$$
MNZ065>067-074>077-082>085-091>093-280000-
   South Central Minnesota

CITY           SKY/WX    TMP DP  RH WIND       PRES   REMARKS
MANKATO        CLOUDY    61  37  41 NW12      29.81R
ST JAMES       CLOUDY    64  30  27 NW13      29.82S
FAIRMONT       MOSUNNY   66  31  27 NW14      29.81S
GLENCOE        CLOUDY    58  44  59 N12G17    29.82R
FARIBAULT      CLOUDY    59  39  47 NW9       29.80S
OWATONNA       PTCLDY    59  36  41 NW10      29.80R
WASECA         CLOUDY    59  34  38 NW9       29.81R
ALBERT LEA     CLOUDY    63  34  34 NW10G18   29.79S
$$
MNZ078>079-086>088-094>096-280000-
   Southeast Minnesota

CITY           SKY/WX    TMP DP  RH WIND       PRES   REMARKS
ROCHESTER      PTCLDY    59  39  47 NW10G18   29.78S
RED WING       LGT RAIN  52  46  82 N5        29.81R
DODGE CENTER   PTCLDY    59  36  41 NW12G25   29.79R
WINONA         RAIN      55  45  67 N6        29.79R
AUSTIN         PTCLDY    61  34  36 NW14G21   29.78S
PRESTON        CLOUDY    59  36  42 NW10G18   29.78R
$$
ABBREVIATIONS USED IN REMARKS
   TC - TEMPERATURES IN CELSIUS
  WCI - WIND CHILL INDEX
   HX - HEAT INDEX
  VSB - VISIBILITY
$$




USA.gov is the U.S. government's official web portal to all federal, state and local government web resources and services.